Location: Carnetin
(48.9010°N, 2.7059°E)
Time: 20:10:38
(UTC+00:00)

USA 267 - Visible Passes

Search period start: 25 May 2022 00:00
Search period end: 04 June 2022 00:00
Orbit: 1100 x 1107 km, 123.0° (Epoch: 07 May)

Date Brightness Start Highest point End Pass type
(mag) Time Alt. Az. Time Alt. Az. Time Alt. Az.
25 May 4.7 01:47:23 15° WSW 01:47:23 15° WSW 01:50:58 10° W visible
25 May 4.1 21:31:19 10° E 21:37:35 50° NNE 21:43:51 10° WNW visible
25 May 3.2 23:14:57 16° ESE 23:20:21 87° SW 23:26:56 10° NW visible
26 May 4.0 01:02:14 27° SSW 01:03:54 31° SW 01:09:35 10° WNW visible
26 May 4.4 20:49:01 10° ENE 20:55:09 44° N 21:01:17 10° WNW visible
26 May 3.6 22:31:10 10° ESE 22:37:39 65° NNE 22:44:07 10° NW visible
27 May 3.3 00:17:02 26° SSE 00:20:46 55° SW 00:27:12 10° WNW visible
27 May 4.6 02:04:19 15° SW 02:04:48 15° WSW 02:08:27 10° W visible
27 May 4.4 20:06:35 10° ENE 20:12:44 45° N 20:18:53 10° WNW visible
27 May 4.1 21:48:50 10° E 21:55:06 50° NNE 22:01:22 10° WNW visible
27 May 3.2 23:31:45 12° ESE 23:37:52 87° SW 23:44:28 10° NW visible
28 May 4.0 01:19:02 24° SSW 01:21:26 31° SW 01:27:07 10° WNW visible
28 May 4.4 21:06:32 10° ENE 21:12:40 44° N 21:18:47 10° WNW visible
28 May 3.6 22:48:41 10° ESE 22:55:09 66° NNE 23:01:38 10° NW visible
29 May 3.3 00:33:39 19° SSE 00:38:17 54° SW 00:44:43 10° WNW visible
29 May 4.6 02:20:55 14° SW 02:22:19 15° WSW 02:25:56 10° W visible
29 May 4.4 20:24:06 10° ENE 20:30:15 45° N 20:36:24 10° WNW visible
29 May 4.1 22:06:21 10° E 22:12:37 51° NNE 22:18:53 10° WNW visible
29 May 3.2 23:48:48 10° ESE 23:55:23 87° SSW 00:01:59 10° NW visible
30 May 4.0 01:35:22 19° S 01:38:57 30° SW 01:44:37 10° WNW visible
30 May 4.4 21:24:02 10° ENE 21:30:11 44° N 21:36:19 10° WNW visible
30 May 3.6 23:06:12 10° ESE 23:12:41 66° NNE 23:19:09 10° NW visible
31 May 3.3 00:49:38 11° SSE 00:55:49 54° SW 01:02:14 10° WNW visible
31 May 4.6 02:36:52 11° SSW 02:39:51 15° WSW 02:43:26 10° W visible
31 May 4.4 20:41:37 10° ENE 20:47:46 45° N 20:53:54 10° WNW visible
31 May 4.1 22:23:51 10° E 22:30:08 51° NNE 22:36:25 10° WNW visible
01 Jun 3.2 00:06:19 10° SE 00:12:54 87° SSW 00:19:30 10° NW visible
01 Jun 4.0 01:50:50 10° S 01:56:28 30° SW 02:02:08 10° WNW visible
01 Jun 4.4 21:41:33 10° ENE 21:47:42 45° N 21:53:49 10° WNW visible
01 Jun 3.6 23:23:43 10° ESE 23:30:11 66° NNE 23:36:41 10° NW visible
02 Jun 3.3 01:06:57 10° SE 01:13:20 54° SW 01:19:45 10° WNW visible
02 Jun 4.6 02:53:50 10° SSW 02:57:23 15° WSW 03:00:56 10° W visible
02 Jun 4.4 20:59:07 10° ENE 21:05:17 45° N 21:11:26 10° WNW visible
02 Jun 4.1 22:41:22 10° E 22:47:39 51° NNE 22:53:55 10° WNW visible
03 Jun 3.2 00:23:50 10° SE 00:30:25 86° SSW 00:37:01 10° NW visible
03 Jun 4.0 02:08:22 10° S 02:13:59 30° SW 02:19:38 10° WNW visible
03 Jun 4.2 20:16:31 10° ENE 20:22:50 52° NNW 20:29:08 10° W visible
03 Jun 4.4 21:59:03 10° ENE 22:05:12 45° N 22:11:21 10° WNW visible
03 Jun 3.6 23:41:14 10° ESE 23:47:43 66° NNE 23:54:11 10° NW visible
